CAPE
0 0 0 0 0 0 0 0 0 0 0 10 14 5 6 6 93 172 429 50 437 678 302 360 932 1216 864 975 1039 1377 1433 948 901 621 907 301 235 64 0 1 0 0 0 0 0 0 0 0 0 0 0 0 0 201 207 291 443 258 531 1087 1134 1199 1505 1867 1819 1551 1228 1013 1309 1403 977 1123 1184 1848 1977 1740 1896 2068 1627 2410 2971 3541 2907 3498 3410 3432
0 0 0 0 0 0 0 0 0 0 0 5 5 143 9 2 11 624 206 534 645 870 973 998 493 633 1356 1131 1354 1428 1290 1280 1200 551 835 1655 370 262 7 27 0 0 0 0 0 0 0 0 0 0 0 0 4 140 159 379 694 564 510 822 908 1208 1451 1746 1621 1815 1434 1228 969 1220 752 623 952 2813 2223 1973 2471 1572 2454 3322 3365 3222 3098 3273 3540 3734
0 0 0 0 0 0 0 0 0 0 0 1 74 47 18 51 30 18 734 504 284 583 1105 992 796 745 996 1490 1432 1173 1448 1832 1226 1095 1625 1208 893 715 197 4 39 2 1 0 0 0 0 0 0 0 0 0 7 96 84 363 768 666 1124 1546 1434 1265 1411 1508 1450 1637 1736 1508 1453 1027 852 852 1044 1609 1580 1648 1748 2064 2357 2404 2940 3314 3451 3351 3103 3169
0 0 0 0 0 0 0 0 0 0 0 0 1 46 566 12 58 68 854 271 33 243 670 848 1071 1938 1573 1193 1307 1269 1512 1660 2006 1560 1218 843 886 716 377 12 66 1 34 2 18 0 0 0 0 0 0 6 28 263 162 228 731 657 1680 2012 1858 1723 1477 1669 1731 1492 1384 1372 1458 1806 2123 1320 1107 1864 1833 2441 2374 2360 2008 2134 2825 3356 3595 3146 2756 2766
0 0 0 0 0 0 0 0 0 0 0 0 3 7 6 12 1 1 167 432 25 28 448 832 771 1201 1620 1418 1158 1374 1467 1029 1217 1742 1307 1149 1602 1824 1462 536 176 32 16 12 44 0 1 0 0 0 0 0 56 200 212 246 578 619 1056 1893 2091 2039 1868 1769 1890 1721 2005 1957 1766 1582 2197 1691 1957 1892 2340 2074 2238 2298 3005 2077 2497 2834 3243 3044 2678 2692
0 0 0 0 0 0 0 0 0 0 0 3 5 0 32 18 3 4 1 1 276 106 403 659 400 478 1037 1326 1024 1057 1186 1044 1459 1009 1256 1249 1542 1057 1721 1765 770 110 32 45 45 12 12 0 1 0 4 0 6 188 125 340 505 629 1055 1788 2279 2006 2068 1613 1910 2056 2448 2334 2335 1997 2317 3210 3158 2330 2355 2456 2136 2048 2418 1683 1815 2453 2580 2487 2392 2736
0 0 0 0 0 0 0 0 5 0 0 1 0 0 2 7 6 2 0 0 3 521 386 143 175 19 383 857 913 761 932 888 1138 1057 673 1273 1325 1607 1924 1650 1884 330 146 42 36 9 12 6 15 15 3 0 9 46 156 224 260 727 1252 1746 1971 2120 2114 1998 2092 2418 2426 2392 2496 2281 2021 2469 2680 2562 2211 2454 1549 1725 1886 2004 2102 2407 2448 2916 2288 1961
0 0 0 0 0 0 0 1 10 0 0 0 0 0 0 4 4 2 1 0 0 15 289 345 15 16 204 240 451 652 424 933 705 544 820 942 1487 1400 1994 1893 2164 1363 493 210 132 79 61 77 60 162 35 3 22 38 96 107 119 1067 1742 2035 2080 2180 2136 1915 2223 2606 2585 2698 2753 2661 2362 2179 2278 1815 2454 2410 2216 2200 2494 2592 1977 1917 2108 2655 2511 2562
0 0 0 0 0 3 0 0 0 0 0 0 0 0 0 0 1 1 1 1 2 5 94 334 33 83 4 178 747 822 623 579 635 808 718 1092 894 1387 1626 1457 1984 2109 1901 1528 153 143 96 180 161 264 134 32 78 29 63 75 263 1202 1911 2390 2390 2234 2284 2496 2444 2598 2477 2952 3064 2674 2262 2417 2223 2027 2222 2157 2035 2202 2277 2741 2466 2435 2148 2806 3043 2829
0 0 0 0 2 5 0 0 0 0 0 0 5 1 7 0 6 4 4 6 12 1 5 7 17 152 67 111 619 960 366 784 946 767 630 1295 1566 1184 1288 1745 1764 1775 2053 1900 967 1477 376 225 215 316 292 45 101 99 207 70 181 502 1772 2406 2573 2552 2308 2616 2727 2702 2726 3055 3189 2834 2406 2404 2383 2436 2255 2179 2516 2634 3157 2953 2738 3101 2860 2370 3043 2944
0 42 2 0 1 0 0 0 0 0 0 0 0 1 6 1 1 1 0 1 3 0 5 1 4 118 52 71 473 311 611 501 614 661 782 767 1685 2313 1954 1726 1906 1671 1993 1798 1611 1512 1339 565 255 445 264 296 105 159 131 67 178 546 1293 2074 2530 2627 2350 2651 2946 2813 2716 3088 2913 2721 2586 2468 2118 2253 2294 2648 2940 3046 3129 3364 3082 3810 3532 2472 2607 2678
0 3 1 0 0 0 0 0 0 0 0 0 0 0 3 6 2 1 0 3 1 4 0 0 1 288 284 94 360 366 357 627 838 607 789 836 1156 1445 1903 1667 1192 1768 1702 1553 1508 1941 1532 1859 777 350 553 392 248 126 166 60 248 875 1462 2141 2590 2732 2620 2732 2949 2826 2582 2781 2638 2499 2578 2628 2641 2376 1949 2493 2746 2934 2930 2982 3221 3586 3718 3753 2633 2605
0 4 3 0 0 0 0 0 0 0 0 0 0 1 4 1 0 2 8 1 3 4 1 0 2 155 217 428 312 212 666 380 1075 1069 895 971 1089 1260 1246 1324 1671 1753 1846 1788 1682 2081 2115 1660 1367 938 1429 1281 707 521 355 148 227 739 1673 2426 2454 2836 2789 2819 3012 3079 2892 2566 2550 2593 2500 2552 2997 2741 2834 2611 3004 2922 3318 3244 3254 3814 3698 3787 3460 3050
0 1 2 0 2 0 0 0 7 0 0 0 0 0 0 4 4 2 5 2 4 0 0 0 0 374 139 311 216 280 314 739 517 413 855 807 860 1013 1563 1491 2238 2018 2237 1591 1357 2550 2076 1634 1660 1466 1387 1392 820 402 308 284 653 1048 1558 2686 2317 2896 2928 2946 3160 3109 3159 2744 2686 2706 2611 2668 3220 3026 2791 2750 2464 2470 3222 3520 3037 2820 2808 3721 3239 2732
3 0 0 0 0 0 0 0 1 0 0 0 0 0 0 1 4 0 0 2 2 9 0 0 0 378 117 364 199 225 148 370 355 489 552 1086 1253 1503 1270 1591 1901 1832 2417 2058 1653 1633 1527 1529 1563 1636 1744 1454 969 338 302 329 977 1571 2166 3215 3015 3147 2908 3102 3395 3382 3326 2787 2638 2735 2674 2724 2886 2721 2628 2567 2521 2786 2628 2341 2433 3133 2701 2796 2924 2982
0 0 0 0 0 0 0 0 1 0 0 0 0 0 3 5 2 2 2 2 2 11 8 1 47 313 334 216 266 119 155 95 325 307 448 925 1224 1170 1214 1716 1783 1465 1646 1615 1320 1107 1258 1274 2150 1613 1695 1178 938 1157 691 615 1198 1485 2481 3313 3259 3172 2785 2993 3500 3572 3268 2940 2590 2843 2772 2646 2695 2949 2482 2949 3077 3071 2557 2717 2846 3259 3420 2801 3010 2803
0 0 2 0 0 0 0 0 0 0 0 0 0 0 0 0 0 0 0 0 2 6 3 374 114 208 147 234 180 122 140 104 245 241 197 303 430 743 1050 1100 1198 1267 1326 1674 1213 711 764 852 1202 2017 1934 1149 1134 959 1077 1424 1393 1462 2470 3269 3639 3528 3056 2902 3486 3504 3196 3115 2657 2744 2749 2560 2685 2462 2371 1877 1987 1303 1659 2400 2333 2382 2039 2091 2576 2309
1 1 0 0 0 0 0 1 0 0 0 0 0 0 0 0 0 7 8 4 0 6 198 140 242 153 385 314 483 132 294 336 60 175 124 226 281 255 336 566 1049 1230 1280 1019 1244 1310 1233 1160 1049 1415 1425 1276 1718 1734 1748 2542 2227 1845 2159 2895 3629 3834 3710 2986 3149 3204 3110 3076 2787 2828 2618 2659 2342 2047 1894 1678 1536 1337 1533 2262 2204 1876 2393 1925 1086 1225
0 2 0 0 0 0 0 0 0 0 0 0 0 0 0 0 0 0 0 0 0 0 127 165 207 350 376 249 282 165 138 268 222 180 109 66 114 213 257 379 649 665 923 1135 1181 1323 1535 1139 1035 1239 1322 1432 1010 1720 1564 1896 1809 1649 1522 2177 3476 3488 3533 3046 2926 3077 3183 2849 2162 2157 2345 2294 2210 2089 1942 1520 1739 1515 1339 1133 1586 1434 1822 1477 1728 1738
0 1 0 0 0 0 0 0 0 0 0 0 0 0 0 0 0 0 0 0 8 7 2 474 222 286 277 291 342 194 38 154 37 75 48 68 86 126 136 251 590 724 808 840 856 813 1431 1273 1232 1782 1138 1025 1443 1022 1123 1318 1924 1745 1810 2505 3016 2598 2602 3050 3374 3279 3208 2836 2486 2109 2571 2661 2414 2319 2050 2007 2002 1501 1140 1117 1274 1302 1130 1416 1327 1190
0 1 1 0 0 0 0 0 0 0 0 0 0 0 0 0 1 0 0 0 0 9 15 273 103 122 196 231 182 164 38 32 47 51 74 68 80 59 80 157 416 599 770 894 914 1172 1224 1237 1563 1629 1946 1298 2679 2445 2019 1906 1747 2307 1826 2064 2386 2106 2391 2202 2219 3085 3261 3173 2850 2720 2692 2344 2461 1772 1800 1572 1557 1535 1358 1180 1372 1082 771 1278 1202 1101
0 0 2 0 0 0 0 0 0 0 0 0 0 0 0 0 0 0 0 0 2 7 141 102 362 274 148 425 172 9 63 38 19 39 30 67 72 61 65 78 156 428 604 641 953 1131 1206 1261 1514 2053 2531 2293 1962 1676 2241 1779 1760 2098 2166 1408 1849 2120 2293 2016 1769 2364 2480 2941 2910 2330 2451 2508 1971 1858 1682 1318 1152 1281 1366 1265 1274 1441 1208 921 1285 1175
0 0 0 0 0 0 2 0 0 0 0 0 0 0 0 0 0 0 0 4 8 88 594 491 456 128 124 112 79 27 22 5 10 7 18 33 62 53 54 65 150 173 311 496 886 1188 1278 1369 1304 2019 2124 2257 2317 2332 2238 2068 1829 1862 2138 2018 1462 1666 1991 2227 2054 1614 1589 2641 2794 2836 2386 2571 2568 2190 1580 1069 960 698 732 1082 1151 1213 1219 654 582 986
0 0 0 0 0 0 0 0 0 0 0 0 0 0 0 0 0 0 0 2 66 235 486 345 346 138 103 68 19 3 3 1 2 0 4 34 44 53 37 38 133 287 314 392 1036 1113 1184 1161 1138 1540 1818 1557 1538 1987 2110 2182 2452 1929 1855 2238 2168 1960 1692 1451 1490 1750 1348 1184 1849 2190 2017 2776 2870 2170 1550 1217 820 696 631 634 983 1263 1100 719 593 648
0 7 0 5 0 0 0 0 0 0 0 0 0 0 0 0 0 0 0 0 6 19 36 148 184 79 16 75 11 27 18 9 1 0 3 19 55 45 28 37 70 248 342 414 848 914 1018 1018 878 953 1352 1278 1423 1382 1524 2111 2284 2394 2917 2382 1713 2050 1930 1408 1310 1264 1300 1700 2054 1721 1554 1323 1810 2049 2064 1340 862 648 569 413 651 1127 886 808 464 463
0 0 3 7 2 0 0 0 0 0 0 0 0 0 0 0 0 0 0 2 1 28 48 116 145 26 55 83 39 10 5 1 2 5 1 2 27 13 28 36 52 99 250 311 488 661 914 915 934 683 722 1048 1074 1207 1510 1610 1823 2424 2774 2546 1853 1072 1291 1219 1195 1436 1661 1758 2221 1907 1538 1670 1457 993 1709 1725 942 729 590 416 279 641 1076 974 636 430
0 0 17 0 0 3 10 6 0 0 0 0 0 0 0 0 0 0 0 0 50 82 157 251 166 63 60 32 7 3 7 2 4 2 2 2 0 26 8 34 38 72 126 181 307 438 548 682 687 771 731 580 551 772 993 1748 1530 1395 1480 1444 1509 1585 1977 2695 2024 2016 2056 2011 2505 2571 2747 2232 1942 836 874 1268 1119 860 619 474 240 183 540 965 758 422
0 0 0 0 0 0 0 0 0 0 0 0 0 0 0 0 0 0 0 0 8 0 40 114 190 86 17 10 3 5 4 4 4 6 1 4 7 1 6 4 35 7 74 145 196 297 409 491 593 631 591 703 553 641 879 1260 1277 1174 1303 1385 1615 2217 2231 2217 2536 2398 2660 2381 1971 1998 1899 2322 1681 1138 1072 1306 1350 1319 536 377 273 209 235 707 652 394
0 0 0 0 0 0 0 0 0 0 0 0 0 0 0 0 0 0 0 0 0 0 121 159 187 69 46 28 3 2 1 4 5 2 4 0 0 0 4 2 2 2 3 0 97 139 280 422 451 584 586 502 483 701 569 547 542 805 1672 1799 2055 2259 1852 1789 1813 2174 2091 2680 2424 2093 2097 1825 2129 2106 1656 1483 1554 1914 1450 994 755 705 506 705 448 284
0 0 2 0 0 0 0 0 0 0 0 0 0 0 0 0 0 0 0 0 0 71 123 135 130 63 47 31 7 1 0 0 0 0 3 1 1 6 2 6 2 2 0 0 0 101 166 156 267 361 495 463 498 460 640 641 694 596 825 948 1538 1934 1857 1839 1874 1948 2414 2061 1588 1721 2375 2101 2406 2442 1797 1394 1582 2658 3248 2084 1944 601 855 668 779 565
0 4 5 0 0 0 0 0 0 0 0 0 0 0 0 0 0 0 0 0 0 77 88 136 64 42 18 0 0 1 2 0 0 1 2 1 2 2 6 1 1 2 0 0 0 0 0 74 153 166 195 271 334 281 356 552 614 505 464 546 1024 1962 1777 1438 1536 2374 2061 2050 1797 1734 1965 2673 2449 1774 1816 2112 2214 2285 2893 3495 3078 2222 2208 1556 1217 1007
0 0 0 0 0 0 0 0 0 0 0 0 0 0 0 0 0 0 0 0 0 1 115 79 79 73 7 9 2 0 0 0 4 0 1 1 1 0 1 2 0 0 0 0 0 0 0 0 0 0 56 121 153 232 251 306 377 589 582 478 556 598 860 1412 1608 1782 2100 1653 2035 2174 2098 2036 2394 2689 2916 3134 3336 3702 3470 3725 3138 2796 3361 2445 1496 2370
0 0 0 0 0 0 0 0 0 0 0 0 0 0 0 0 0 0 0 0 0 0 0 50 100 25 6 0 0 6 7 0 0 0 1 0 0 2 0 6 0 0 0 0 0 0 0 0 0 0 0 0 2 14 64 148 205 316 437 430 625 628 574 560 560 1116 1383 1764 1702 1762 1890 2227 2402 2645 2364 2358 2747 2376 2226 2223 2021 2141 1542 1693 1634 1770
0 0 0 0 0 0 0 0 0 0 0 0 0 0 0 0 0 0 0 0 0 0 18 0 128 91 22 1 0 0 2 3 6 1 0 1 0 0 7 0 0 0 0 0 0 0 0 0 0 0 0 0 0 0 0 0 0 43 166 265 284 487 653 652 562 485 437 1158 1281 1147 1547 1565 1770 1682 1986 1974 1780 1796 1683 1926 1909 1432 1513 1782 1273 1385
0 0 0 0 0 0 3 0 0 0 0 0 0 0 0 0 0 0 0 0 0 0 0 1 88 51 8 9 5 4 6 0 0 5 0 0 0 0 0 0 0 0 0 0 0 0 0 0 0 0 0 0 0 0 0 0 0 0 0 0 50 208 298 513 596 633 564 474 409 517 692 937 1323 1566 1564 1741 1788 1741 1754 1602 1606 1674 1814 1668 1382 1327
0 0 0 0 0 1 0 2 0 0 0 0 0 0 0 0 0 0 0 0 0 0 8 7 88 27 8 32 2 2 0 9 2 1 0 0 0 0 0 0 0 0 0 0 0 0 0 0 0 0 0 0 0 0 0 0 0 0 0 0 0 2 88 178 270 393 548 563 527 504 523 624 850 1036 1273 1420 1414 1372 1484 1686 1712 1660 1825 1445 1429 1511
0 0 0 0 0 0 0 10 1 8 0 0 0 0 0 0 0 0 0 0 0 0 15 71 88 36 1 7 4 0 0 0 0 0 0 0 0 0 0 0 0 0 0 0 0 0 0 0 0 0 0 0 0 0 0 0 0 0 0 0 0 7 60 34 14 5 173 302 503 616 605 579 581 567 1035 1477 1276 1151 1538 1800 1537 1611 1773 1682 1664 1520
0 0 1 1 24 0 0 2 15 4 0 0 0 0 0 0 0 0 0 0 0 0 0 0 2 0 0 0 0 0 0 0 0 0 0 0 0 0 0 0 0 0 0 0 0 0 0 0 0 0 0 0 0 0 0 0 0 0 1 1 0 2 4 0 0 0 2 0 0 14 361 491 561 535 599 1253 986 1247 1159 1284 2056 2244 2212 2222 2154 1887
0 0 0 2 15 0 0 0 0 5 54 8 0 0 0 0 0 0 0 0 0 0 0 0 0 0 0 0 0 0 0 0 0 1 0 3 2 0 0 0 0 0 0 0 0 0 0 0 0 0 0 0 0 0 0 0 0 0 0 0 0 0 0 0 0 0 0 0 0 0 0 25 212 306 455 867 1223 1269 1218 1151 1623 1986 2497 2611 2440 2107
0 0 0 0 0 1 0 0 0 6 99 5 0 0 0 0 0 0 0 0 0 0 0 0 0 0 0 0 0 0 0 0 13 0 0 0 0 0 0 0 0 0 0 0 0 0 0 0 0 0 0 0 0 0 0 0 0 0 0 0 0 0 0 0 0 0 0 0 0 0 0 0 195 217 289 677 999 1309 1348 1301 1402 1655 1977 2179 2528 2209
0 0 0 0 0 0 0 0 0 162 77 0 0 0 0 0 0 0 0 171 5 0 0 0 0 0 0 0 0 0 0 0 0 0 0 0 0 0 0 0 0 0 0 0 0 0 0 0 0 0 0 0 0 0 0 0 0 0 0 0 0 0 0 0 0 0 0 0 0 0 0 0 25 96 235 652 960 1314 1621 1323 1413 1864 2288 2330 2173 1950
0 0 0 0 0 0 0 0 0 197 52 20 0 0 0 0 0 5 260 65 0 0 0 0 0 0 0 0 0 0 0 0 0 0 0 0 0 0 0 0 0 0 0 0 0 0 0 0 0 0 0 0 0 0 0 0 0 0 0 0 0 0 0 0 0 0 1 0 0 0 0 0 0 0 58 426 807 1086 1197 1584 1573 1637 2134 2324 2111 2028
50 1 0 0 0 0 0 0 0 2 180 39 0 0 0 0 350 179 64 16 0 0 0 0 0 0 0 0 0 0 0 0 0 0 0 0 0 0 0 0 0 0 0 0 0 0 0 0 0 0 0 0 0 0 0 0 0 0 0 0 0 0 0 0 0 0 0 1 1 0 0 0 0 0 2 171 571 769 1050 1162 827 1301 2051 2170 1920 1715
30 1 2 11 2 0 0 0 58 322 116 7 0 62 4 170 107 125 58 31 4 0 0 0 0 0 0 0 0 0 0 0 0 0 0 0 0 0 0 0 0 0 0 0 0 0 0 0 0 0 0 0 0 0 0 0 0 0 0 0 0 0 0 3 0 0 0 1 2 0 0 0 0 0 7 264 705 779 1021 1427 1482 1377 1274 1744 1693 1455
19 4 434 287 108 8 0 28 13 179 44 22 16 21 51 92 186 52 61 53 19 0 0 0 0 0 0 0 0 0 0 0 0 0 0 0 0 0 0 0 0 0 0 0 0 0 0 0 0 0 0 0 0 0 0 0 0 0 0 0 0 0 0 0 0 0 1 1 0 0 0 0 0 0 0 115 128 172 465 653 843 1086 1228 1492 1346 1114
0 0 312 282 61 55 64 46 91 52 56 21 0 69 84 75 136 68 2 26 0 1 0 0 0 0 0 0 0 0 0 0 0 0 0 0 0 0 0 0 0 0 0 0 0 0 0 0 0 0 0 0 0 0 0 0 0 0 0 0 1 0 0 0 4 7 2 0 0 0 0 0 0 0 0 0 1 99 307 347 699 1292 1409 1197 1071 994
0 0 5 1 1 0 12 53 21 53 78 36 12 0 7 110 130 0 0 0 0 0 0 0 0 0 0 0 0 0 0 0 0 0 0 0 0 0 0 0 0 0 0 0 0 0 0 0 0 0 0 0 0 0 0 0 0 0 0 0 0 0 1 2 2 1 0 5 0 0 0 0 0 0 0 0 0 0 0 2 132 1432 1603 1281 897 1102
234 2 0 0 0 0 0 73 58 69 57 60 52 11 1 38 114 27 0 0 0 0 0 0 0 0 0 0 0 0 0 0 0 0 0 0 0 0 0 0 0 0 0 0 0 0 0 0 0 0 0 0 0 0 0 0 0 0 0 0 0 0 1 2 1 0 1 1 0 0 0 1 0 0 0 0 0 0 0 0 0 17 109 120 252 370
79 0 79 123 0 0 0 0 1 9 3 1 6 9 11 6 74 63 6 0 0 0 0 0 0 0 0 0 0 0 0 0 0 0 0 0 0 0 0 0 0 0 0 0 0 0 0 0 0 0 0 0 0 0 0 0 0 0 0 0 0 1 5 8 9 16 6 0 0 0 11 4 1 1 0 0 0 0 0 0 0 4 4 2 79 127
28 80 13 44 137 111 42 178 184 10 0 28 66 26 4 0 2 14 22 2 0 0 0 0 0 0 0 0 0 0 0 0 0 0 0 0 0 0 0 0 0 0 0 0 0 0 0 0 0 0 0 0 0 0 0 0 0 1 0 0 0 4 12 13 14 15 14 10 11 5 4 8 3 2 0 0 0 0 0 0 0 10 4 2 8 0
84 664 337 454 126 57 82 57 188 95 74 25 8 9 1 0 2 69 27 61 34 2 1 2 0 0 0 0 0 0 0 1 7 3 0 0 0 0 0 0 0 0 0 0 0 0 0 0 0 0 0 1 2 1 0 0 0 3 1 5 6 9 13 17 16 10 5 11 12 16 23 11 9 16 27 15 9 6 3 0 15 0 0 0 0 0
Wind_Speed
nan nan nan nan nan nan nan nan nan nan nan nan nan nan nan nan nan 24 18 nan 18 19 16 19 19 18 18 19 17 19 16 17 19 24 22 6 8 nan nan nan nan nan nan nan nan nan nan nan nan nan nan nan nan 6 5 5 6 3 3 6 4 3 4 1 1 4 4 3 5 4 3 3 5 4 6 5 7 6 3 3 3 4 4 5 5 5
nan nan nan nan nan nan nan nan nan nan nan nan nan 21 nan nan nan 22 23 18 12 15 12 15 19 17 19 21 18 19 18 18 21 18 19 19 6 6 nan nan nan nan nan nan nan nan nan nan nan nan nan nan nan 6 5 4 5 2 3 4 3 2 3 1 2 4 4 5 5 4 4 3 1 5 5 8 9 4 3 4 3 4 4 4 4 4
nan nan nan nan nan nan nan nan nan nan nan nan nan nan nan nan nan nan 28 19 12 16 14 14 17 17 16 21 22 19 20 20 14 12 14 19 12 8 5 nan nan nan nan nan nan nan nan nan nan nan nan nan nan nan nan 5 5 2 4 4 3 3 2 2 3 4 5 6 6 5 4 4 2 3 3 4 5 4 1 1 4 3 4 4 2 3
nan nan nan nan nan nan nan nan nan nan nan nan nan nan 12 nan nan nan 25 20 nan 14 16 14 13 13 16 20 23 21 19 19 18 14 15 17 21 5 3 nan nan nan nan nan nan nan nan nan nan nan nan nan nan 6 5 6 5 3 5 4 3 4 3 4 4 4 5 6 8 7 8 11 6 4 5 4 4 6 2 1 2 3 4 4 3 4
nan nan nan nan nan nan nan nan nan nan nan nan nan nan nan nan nan nan 18 18 nan nan 22 21 14 8 11 17 18 17 16 20 17 20 18 15 13 16 16 7 6 nan nan nan nan nan nan nan nan nan nan nan nan 6 6 6 6 2 4 3 3 4 5 4 5 5 6 7 7 8 8 7 7 7 4 3 3 4 6 2 3 2 4 5 3 3
nan nan nan nan nan nan nan nan nan nan nan nan nan nan nan nan nan nan nan nan 15 16 16 19 17 7 5 8 9 11 14 14 13 13 15 14 15 15 10 12 4 5 nan nan nan nan nan nan nan nan nan nan nan 6 7 6 7 6 4 3 3 4 6 4 5 4 6 6 6 7 5 4 3 2 2 2 1 2 4 4 3 3 4 4 3 4
nan nan nan nan nan nan nan nan nan nan nan nan nan nan nan nan nan nan nan nan nan 11 11 11 19 nan 8 7 6 5 11 12 14 9 13 12 13 10 12 7 9 4 8 nan nan nan nan nan nan nan nan nan nan nan 7 6 6 7 5 4 3 5 5 5 5 4 5 5 6 4 4 4 4 2 2 2 2 2 3 6 2 4 4 4 4 4
nan nan nan nan nan nan nan nan nan nan nan nan nan nan nan nan nan nan nan nan nan nan 15 6 nan nan 11 9 7 12 14 16 15 12 14 12 9 9 8 7 6 7 4 7 5 nan nan nan nan 11 nan nan nan nan nan 5 5 8 6 5 3 5 5 6 6 3 3 4 4 5 5 5 4 2 2 1 2 2 2 5 2 4 3 4 5 2
nan nan nan nan nan nan nan nan nan nan nan nan nan nan nan nan nan nan nan nan nan nan nan 6 nan nan nan 16 25 23 25 17 11 13 8 12 6 5 6 6 5 7 14 10 6 7 nan 9 13 11 8 nan nan nan nan nan 6 8 8 7 4 6 6 7 6 3 3 4 3 4 6 6 5 4 3 2 2 2 1 3 5 2 2 4 3 1
nan nan nan nan nan nan nan nan nan nan nan nan nan nan nan nan nan nan nan nan nan nan nan nan nan 22 nan 17 21 16 13 14 14 9 7 9 12 7 3 6 6 10 11 12 13 16 8 9 10 11 10 nan 8 nan 8 nan 8 8 8 8 6 6 6 8 7 4 3 2 3 4 5 5 5 5 4 3 3 1 2 2 1 1 0 2 2 1
nan nan nan nan nan nan nan nan nan nan nan nan nan nan nan nan nan nan nan nan nan nan nan nan nan 20 nan nan 22 14 15 15 8 8 10 12 10 9 8 5 9 10 9 9 14 12 13 4 10 10 9 7 8 9 9 nan 8 8 8 8 7 7 6 8 8 5 3 3 2 4 4 4 5 5 5 4 4 2 2 2 1 2 1 1 2 2
nan nan nan nan nan nan nan nan nan nan nan nan nan nan nan nan nan nan nan nan nan nan nan nan nan 30 23 nan 25 21 24 19 11 11 13 15 13 10 7 6 7 9 7 8 11 12 10 12 7 9 9 6 8 11 10 nan 9 8 9 9 8 8 6 7 8 6 5 3 3 4 4 5 5 5 5 5 4 2 1 2 2 2 1 0 2 3
nan nan nan nan nan nan nan nan nan nan nan nan nan nan nan nan nan nan nan nan nan nan nan nan nan 27 31 30 30 30 33 17 23 17 14 17 17 12 8 8 7 8 11 12 11 11 12 12 8 11 6 4 7 11 12 8 8 8 10 10 9 9 7 7 7 6 6 4 5 5 5 5 6 5 5 5 5 4 2 2 3 4 2 2 0 2
nan nan nan nan nan nan nan nan nan nan nan nan nan nan nan nan nan nan nan nan nan nan nan nan nan 34 33 32 34 34 34 30 24 15 17 18 18 14 13 11 10 10 11 10 9 10 15 12 10 11 12 6 5 9 13 10 10 9 9 11 10 11 9 8 7 6 6 5 6 6 6 7 7 6 5 5 4 4 3 2 3 3 3 3 2 3
nan nan nan nan nan nan nan nan nan nan nan nan nan nan nan nan nan nan nan nan nan nan nan nan nan 26 30 25 31 36 38 35 32 29 28 35 29 20 15 12 10 13 15 11 10 14 14 11 8 9 10 7 5 7 11 11 12 13 12 12 11 12 10 9 8 8 6 6 7 8 8 9 9 7 6 6 5 5 4 2 1 2 4 4 2 3
nan nan nan nan nan nan nan nan nan nan nan nan nan nan nan nan nan nan nan nan nan nan nan nan nan 32 34 29 34 33 33 nan 34 34 32 31 27 24 23 18 15 14 14 12 10 11 11 10 11 9 7 7 8 6 8 11 12 15 15 13 11 12 12 11 10 9 7 7 8 9 9 10 10 9 7 7 6 6 4 3 3 3 4 4 5 4
nan nan nan nan nan nan nan nan nan nan nan nan nan nan nan nan nan nan nan nan nan nan nan 35 39 39 33 28 31 34 34 34 34 35 35 36 32 26 23 22 20 17 12 17 14 10 9 8 7 11 6 7 7 9 8 11 12 13 18 16 14 12 12 11 11 10 9 8 8 9 10 11 11 8 7 6 4 3 4 5 4 5 3 5 6 4
nan nan nan nan nan nan nan nan nan nan nan nan nan nan nan nan nan nan nan nan nan nan 23 33 38 36 29 31 31 35 36 35 nan 39 39 36 35 31 27 25 23 23 21 24 19 12 7 5 4 12 13 8 10 10 9 15 12 13 16 18 16 14 13 12 12 10 9 9 8 9 10 12 11 10 7 6 6 5 6 6 5 5 5 5 5 4
nan nan nan nan nan nan nan nan nan nan nan nan nan nan nan nan nan nan nan nan nan nan 20 33 39 33 32 35 30 37 34 35 35 37 39 nan 35 32 29 29 32 30 25 22 24 20 11 7 8 17 9 9 7 11 11 14 16 13 14 18 16 16 13 12 13 12 11 10 9 9 9 11 12 11 9 8 9 7 7 5 6 4 7 6 6 5
nan nan nan nan nan nan nan nan nan nan nan nan nan nan nan nan nan nan nan nan nan nan nan 30 32 32 36 37 36 41 nan 36 nan nan nan nan nan 32 31 29 29 31 28 26 25 24 20 16 12 13 15 13 12 12 15 14 20 24 23 25 25 22 14 13 13 13 12 10 9 9 11 11 13 12 11 9 10 9 7 6 7 5 7 8 7 6
nan nan nan nan nan nan nan nan nan nan nan nan nan nan nan nan nan nan nan nan nan nan nan 34 42 41 40 38 35 39 nan nan nan nan nan nan nan nan nan 31 28 30 30 33 33 30 25 20 20 16 14 20 24 26 25 24 22 19 21 23 20 17 16 17 12 12 13 12 11 11 12 11 12 10 11 8 9 10 9 8 7 7 6 10 8 8
nan nan nan nan nan nan nan nan nan nan nan nan nan nan nan nan nan nan nan nan nan nan 20 32 42 40 44 36 28 nan nan nan nan nan nan nan nan nan nan nan 31 30 31 35 35 34 32 31 28 25 24 26 24 22 24 25 26 25 26 24 20 22 24 25 23 19 15 13 12 10 13 11 12 11 11 9 9 9 10 9 8 9 8 8 9 9
nan nan nan nan nan nan nan nan nan nan nan nan nan nan nan nan nan nan nan nan nan nan 36 34 31 36 43 42 nan nan nan nan nan nan nan nan nan nan nan nan 37 36 36 36 36 35 34 33 30 31 31 30 26 25 26 25 22 24 24 21 20 22 25 25 20 19 20 15 13 12 13 13 13 13 11 9 9 8 8 9 9 9 8 8 9 8
nan nan nan nan nan nan nan nan nan nan nan nan nan nan nan nan nan nan nan nan nan 24 36 33 33 36 37 nan nan nan nan nan nan nan nan nan nan nan nan nan 39 39 39 39 38 38 36 34 33 32 33 31 28 25 24 23 21 20 21 21 22 22 23 25 26 28 26 19 14 11 12 13 13 12 11 10 9 8 8 9 10 10 8 8 8 10
nan nan nan nan nan nan nan nan nan nan nan nan nan nan nan nan nan nan nan nan nan nan nan 27 37 nan nan nan nan nan nan nan nan nan nan nan nan nan nan nan nan 40 40 42 42 41 39 38 38 36 34 33 29 26 24 25 24 24 25 22 22 29 31 29 27 24 22 23 19 17 16 11 10 11 11 11 12 9 8 8 9 11 9 9 7 10
nan nan nan nan nan nan nan nan nan nan nan nan nan nan nan nan nan nan nan nan nan nan nan 39 37 nan nan nan nan nan nan nan nan nan nan nan nan nan nan nan nan nan 41 43 44 44 44 40 39 39 37 32 30 25 25 27 27 27 29 32 29 29 32 30 27 26 27 24 22 26 26 23 13 9 10 12 12 12 10 9 9 11 12 10 9 10
nan nan nan nan nan nan nan nan nan nan nan nan nan nan nan nan nan nan nan nan nan nan 46 42 39 nan nan nan nan nan nan nan nan nan nan nan nan nan nan nan nan nan 42 44 44 44 44 45 45 43 41 39 33 30 27 29 32 34 33 33 34 34 33 35 31 27 24 23 23 21 19 18 23 20 14 15 15 14 14 10 8 9 12 13 11 10
nan nan nan nan nan nan nan nan nan nan nan nan nan nan nan nan nan nan nan nan nan nan nan 39 38 nan nan nan nan nan nan nan nan nan nan nan nan nan nan nan nan nan nan 44 45 46 47 47 47 47 46 45 40 36 31 26 33 35 30 25 25 25 30 35 30 25 22 23 24 23 27 30 30 28 29 29 22 18 15 13 12 11 14 16 13 11
nan nan nan nan nan nan nan nan nan nan nan nan nan nan nan nan nan nan nan nan nan nan 43 39 37 nan nan nan nan nan nan nan nan nan nan nan nan nan nan nan nan nan nan nan nan 47 48 49 48 49 49 48 46 43 37 31 35 34 27 21 18 20 27 31 30 31 31 27 28 29 29 25 25 25 21 21 25 20 17 17 16 15 15 17 16 14
nan nan nan nan nan nan nan nan nan nan nan nan nan nan nan nan nan nan nan nan nan nan 43 43 44 nan nan nan nan nan nan nan nan nan nan nan nan nan nan nan nan nan nan nan nan 50 49 50 50 50 50 50 49 45 40 36 34 34 32 27 21 20 22 26 29 29 29 30 30 29 28 27 25 24 24 24 20 20 20 18 19 17 16 16 17 18
nan nan nan nan nan nan nan nan nan nan nan nan nan nan nan nan nan nan nan nan nan nan nan 47 nan nan nan nan nan nan nan nan nan nan nan nan nan nan nan nan nan nan nan nan nan nan nan nan 52 52 51 51 51 48 42 38 37 37 37 33 28 26 23 24 26 29 29 29 27 25 24 22 21 24 28 27 21 20 21 23 23 21 20 19 18 19
nan nan nan nan nan nan nan nan nan nan nan nan nan nan nan nan nan nan nan nan nan nan 38 nan nan nan nan nan nan nan nan nan nan nan nan nan nan nan nan nan nan nan nan nan nan nan nan nan nan nan nan 51 52 51 47 42 40 39 38 35 34 32 29 24 25 31 33 33 29 29 30 30 27 27 29 29 27 25 30 30 30 27 26 23 19 22
nan nan nan nan nan nan nan nan nan nan nan nan nan nan nan nan nan nan nan nan nan nan nan nan nan nan nan nan nan nan nan nan nan nan nan nan nan nan nan nan nan nan nan nan nan nan nan nan nan nan nan nan nan nan nan 47 43 40 38 36 34 33 33 31 33 34 33 36 36 31 28 28 30 32 34 35 36 40 35 28 33 36 37 34 29 24
nan nan nan nan nan nan nan nan nan nan nan nan nan nan nan nan nan nan nan nan nan nan nan nan 48 nan nan nan nan nan nan nan nan nan nan nan nan nan nan nan nan nan nan nan nan nan nan nan nan nan nan nan nan nan nan nan nan nan 40 37 37 37 35 35 38 38 36 36 40 37 33 31 33 34 36 36 37 38 35 33 34 35 35 31 35 35
nan nan nan nan nan nan nan nan nan nan nan nan nan nan nan nan nan nan nan nan nan nan nan nan nan nan nan nan nan nan nan nan nan nan nan nan nan nan nan nan nan nan nan nan nan nan nan nan nan nan nan nan nan nan nan nan nan nan nan nan nan 39 39 39 38 38 37 37 39 38 36 35 37 37 37 37 38 37 34 30 27 27 30 32 31 25
nan nan nan nan nan nan nan nan nan nan nan nan nan nan nan nan nan nan nan nan nan nan nan nan nan nan nan nan nan nan nan nan nan nan nan nan nan nan nan nan nan nan nan nan nan nan nan nan nan nan nan nan nan nan nan nan nan nan nan nan nan nan nan 41 40 40 38 37 39 39 37 36 36 38 39 39 38 36 34 30 27 26 27 29 26 23
nan nan nan nan nan nan nan nan nan nan nan nan nan nan nan nan nan nan nan nan nan nan nan nan nan nan nan nan nan nan nan nan nan nan nan nan nan nan nan nan nan nan nan nan nan nan nan nan nan nan nan nan nan nan nan nan nan nan nan nan nan nan nan nan nan nan 41 39 40 39 38 37 36 37 39 39 35 33 32 27 23 23 24 24 28 29
nan nan nan nan nan nan nan nan nan nan nan nan nan nan nan nan nan nan nan nan nan nan nan nan nan nan nan nan nan nan nan nan nan nan nan nan nan nan nan nan nan nan nan nan nan nan nan nan nan nan nan nan nan nan nan nan nan nan nan nan nan nan nan nan nan nan nan nan nan nan 39 38 37 36 35 37 36 33 30 28 25 23 23 23 26 27
nan nan nan nan nan nan nan nan nan nan nan nan nan nan nan nan nan nan nan nan nan nan nan nan nan nan nan nan nan nan nan nan nan nan nan nan nan nan nan nan nan nan nan nan nan nan nan nan nan nan nan nan nan nan nan nan nan nan nan nan nan nan nan nan nan nan nan nan nan nan nan nan 39 36 33 32 33 32 30 30 30 29 26 25 26 26
nan nan nan nan nan nan nan nan nan nan nan nan nan nan nan nan nan nan nan nan nan nan nan nan nan nan nan nan nan nan nan nan nan nan nan nan nan nan nan nan nan nan nan nan nan nan nan nan nan nan nan nan nan nan nan nan nan nan nan nan nan nan nan nan nan nan nan nan nan nan nan nan 41 38 34 31 31 32 32 33 32 28 26 26 28 27
nan nan nan nan nan nan nan nan nan 33 nan nan nan nan nan nan nan nan nan 41 nan nan nan nan nan nan nan nan nan nan nan nan nan nan nan nan nan nan nan nan nan nan nan nan nan nan nan nan nan nan nan nan nan nan nan nan nan nan nan nan nan nan nan nan nan nan nan nan nan nan nan nan nan nan 38 37 35 34 32 33 32 28 25 26 29 28
nan nan nan nan nan nan nan nan nan 36 nan nan nan nan nan nan nan nan 37 nan nan nan nan nan nan nan nan nan nan nan nan nan nan nan nan nan nan nan nan nan nan nan nan nan nan nan nan nan nan nan nan nan nan nan nan nan nan nan nan nan nan nan nan nan nan nan nan nan nan nan nan nan nan nan nan 40 40 39 36 35 34 29 25 25 27 27
nan nan nan nan nan nan nan nan nan nan 36 nan nan nan nan nan 38 38 nan nan nan nan nan nan nan nan nan nan nan nan nan nan nan nan nan nan nan nan nan nan nan nan nan nan nan nan nan nan nan nan nan nan nan nan nan nan nan nan nan nan nan nan nan nan nan nan nan nan nan nan nan nan nan nan nan 41 41 40 37 38 37 32 29 29 29 27
nan nan nan nan nan nan nan nan nan 36 37 nan nan nan nan 44 39 42 nan nan nan nan nan nan nan nan nan nan nan nan nan nan nan nan nan nan nan nan nan nan nan nan nan nan nan nan nan nan nan nan nan nan nan nan nan nan nan nan nan nan nan nan nan nan nan nan nan nan nan nan nan nan nan nan nan 44 45 43 40 39 40 38 34 33 33 33
nan nan 23 19 20 nan nan nan nan 21 nan nan nan nan nan nan 39 nan nan nan nan nan nan nan nan nan nan nan nan nan nan nan nan nan nan nan nan nan nan nan nan nan nan nan nan nan nan nan nan nan nan nan nan nan nan nan nan nan nan nan nan nan nan nan nan nan nan nan nan nan nan nan nan nan nan 51 51 47 44 43 45 45 41 37 34 32
nan nan 27 19 nan nan nan nan nan nan nan nan nan nan nan nan 41 nan nan nan nan nan nan nan nan nan nan nan nan nan nan nan nan nan nan nan nan nan nan nan nan nan nan nan nan nan nan nan nan nan nan nan nan nan nan nan nan nan nan nan nan nan nan nan nan nan nan nan nan nan nan nan nan nan nan nan nan nan 50 49 49 51 48 43 40 38
nan nan nan nan nan nan nan nan nan nan nan nan nan nan nan 32 35 nan nan nan nan nan nan nan nan nan nan nan nan nan nan nan nan nan nan nan nan nan nan nan nan nan nan nan nan nan nan nan nan nan nan nan nan nan nan nan nan nan nan nan nan nan nan nan nan nan nan nan nan nan nan nan nan nan nan nan nan nan nan nan 53 56 54 50 47 45
19 nan nan nan nan nan nan nan nan nan nan nan nan nan nan nan 32 nan nan nan nan nan nan nan nan nan nan nan nan nan nan nan nan nan nan nan nan nan nan nan nan nan nan nan nan nan nan nan nan nan nan nan nan nan nan nan nan nan nan nan nan nan nan nan nan nan nan nan nan nan nan nan nan nan nan nan nan nan nan nan nan nan 58 56 53 51
nan nan nan 25 nan nan nan nan nan nan nan nan nan nan nan nan nan nan nan nan nan nan nan nan nan nan nan nan nan nan nan nan nan nan nan nan nan nan nan nan nan nan nan nan nan nan nan nan nan nan nan nan nan nan nan nan nan nan nan nan nan nan nan nan nan nan nan nan nan nan nan nan nan nan nan nan nan nan nan nan nan nan nan nan nan 56
nan nan nan nan 25 24 nan 36 38 nan nan nan nan nan nan nan nan nan nan nan nan nan nan nan nan nan nan nan nan nan nan nan nan nan nan nan nan nan nan nan nan nan nan nan nan nan nan nan nan nan nan nan nan nan nan nan nan nan nan nan nan nan nan nan nan nan nan nan nan nan nan nan nan nan nan nan nan nan nan nan nan nan nan nan nan nan
nan 35 32 25 24 nan nan nan 35 nan nan nan nan nan nan nan nan nan nan nan nan nan nan nan nan nan nan nan nan nan nan nan nan nan nan nan nan nan nan nan nan nan nan nan nan nan nan nan nan nan nan nan nan nan nan nan nan nan nan nan nan nan nan nan nan nan nan nan nan nan nan nan nan nan nan nan nan nan nan nan nan nan nan nan nan nan
Wind_Direction
nan nan nan nan nan nan nan nan nan nan nan nan nan nan nan nan nan 267 265 nan 252 243 230 232 229 229 230 224 217 216 217 210 186 200 160 211 251 nan nan nan nan nan nan nan nan nan nan nan nan nan nan nan nan 251 256 261 266 267 215 252 255 220 255 231 140 129 140 138 126 139 112 108 108 136 123 127 131 133 148 163 142 120 110 98 87 79
nan nan nan nan nan nan nan nan nan nan nan nan nan 202 nan nan nan 274 262 268 267 238 229 234 239 245 225 220 214 214 222 201 189 196 164 177 212 255 nan nan nan nan nan nan nan nan nan nan nan nan nan nan nan 257 278 274 275 252 268 267 255 217 239 220 136 140 160 162 145 139 129 108 116 158 143 136 140 142 189 177 138 133 129 110 112 101
nan nan nan nan nan nan nan nan nan nan nan nan nan nan nan nan nan nan 262 244 250 243 237 248 242 245 243 214 208 205 216 208 201 194 195 184 151 208 248 nan nan nan nan nan nan nan nan nan nan nan nan nan nan nan nan 298 287 274 235 221 207 209 218 173 181 163 174 159 157 150 151 132 200 113 115 122 130 140 174 154 150 146 122 109 80 68
nan nan nan nan nan nan nan nan nan nan nan nan nan nan 216 nan nan nan 277 273 nan 228 246 259 253 246 234 198 197 203 212 207 218 207 196 194 161 189 256 nan nan nan nan nan nan nan nan nan nan nan nan nan nan 291 306 312 306 290 228 227 198 204 210 181 201 159 185 165 168 165 182 169 166 188 159 178 131 144 157 152 155 137 102 94 64 28
nan nan nan nan nan nan nan nan nan nan nan nan nan nan nan nan nan nan 281 281 nan nan 262 252 237 242 219 185 184 193 204 214 205 209 199 177 176 178 179 202 283 nan nan nan nan nan nan nan nan nan nan nan nan 307 310 318 316 292 309 269 209 203 213 187 217 165 197 175 179 167 200 171 210 212 172 172 146 140 148 137 108 95 88 85 80 56
nan nan nan nan nan nan nan nan nan nan nan nan nan nan nan nan nan nan nan nan 247 238 261 271 239 253 216 175 169 199 215 220 204 212 211 184 201 177 174 178 220 286 nan nan nan nan nan nan nan nan nan nan nan 314 316 321 332 319 312 294 248 213 212 206 235 181 201 194 180 173 183 190 198 247 71 62 54 102 109 98 86 78 64 67 62 78
nan nan nan nan nan nan nan nan nan nan nan nan nan nan nan nan nan nan nan nan nan 271 272 276 247 nan 259 221 191 224 237 243 240 204 236 223 196 181 197 189 190 277 290 nan nan nan nan nan nan nan nan nan nan nan 317 323 327 311 299 290 264 244 220 216 236 198 209 211 172 166 162 173 194 206 168 160 103 53 107 112 114 105 100 98 65 39
nan nan nan nan nan nan nan nan nan nan nan nan nan nan nan nan nan nan nan nan nan nan 304 324 nan nan 244 222 222 259 249 247 248 228 245 240 179 166 195 218 203 207 246 306 280 nan nan nan nan 289 nan nan nan nan nan 317 315 288 284 287 258 247 240 224 235 206 215 212 184 160 162 181 196 191 194 152 135 202 183 118 103 99 103 87 90 76
nan nan nan nan nan nan nan nan nan nan nan nan nan nan nan nan nan nan nan nan nan nan nan 309 nan nan nan 232 222 220 222 217 243 241 223 265 274 173 190 230 234 214 207 200 279 310 nan 279 286 283 286 nan nan nan nan nan 278 277 284 281 259 256 248 246 258 217 209 209 183 174 176 188 181 199 200 203 176 243 163 134 100 133 101 101 128 48
nan nan nan nan nan nan nan nan nan nan nan nan nan nan nan nan nan nan nan nan nan nan nan nan nan 235 nan 244 242 228 235 216 216 241 244 246 265 283 226 229 241 222 221 206 218 205 208 294 283 286 291 nan 295 nan 293 nan 297 293 283 288 280 268 249 260 273 233 223 214 191 192 181 193 178 201 208 213 224 267 297 75 119 232 346 69 63 16
nan nan nan nan nan nan nan nan nan nan nan nan nan nan nan nan nan nan nan nan nan nan nan nan nan 268 nan nan 257 257 242 251 247 204 211 243 248 254 268 225 230 235 238 221 206 226 197 223 296 301 310 296 285 282 296 nan 291 296 295 292 289 273 250 266 279 266 255 216 198 205 196 204 187 199 213 218 240 204 258 285 298 270 26 30 356 355
nan nan nan nan nan nan nan nan nan nan nan nan nan nan nan nan nan nan nan nan nan nan nan nan nan 277 256 nan 259 263 256 249 248 236 226 241 239 251 263 224 208 251 273 252 233 216 231 194 295 314 314 311 281 287 291 nan 286 282 279 289 289 277 262 260 275 280 271 236 212 206 217 207 210 198 215 215 235 235 241 309 313 303 351 9 326 344
nan nan nan nan nan nan nan nan nan nan nan nan nan nan nan nan nan nan nan nan nan nan nan nan nan 259 241 245 253 260 270 256 234 208 210 227 237 233 246 225 217 231 254 270 254 239 231 215 258 279 256 267 295 279 284 290 296 285 281 291 290 281 276 263 271 277 272 245 227 215 222 224 217 214 210 218 224 236 229 234 281 285 293 284 29 318
nan nan nan nan nan nan nan nan nan nan nan nan nan nan nan nan nan nan nan nan nan nan nan nan nan 231 242 242 242 244 254 267 274 240 228 226 230 234 236 236 243 233 237 260 259 242 237 222 218 283 297 327 309 302 298 293 279 276 282 284 294 287 283 268 268 270 268 254 242 225 229 231 228 227 215 222 222 246 221 211 256 296 297 287 314 300
nan nan nan nan nan nan nan nan nan nan nan nan nan nan nan nan nan nan nan nan nan nan nan nan nan 240 244 234 253 240 246 241 248 257 233 229 232 235 246 242 243 241 233 227 230 228 229 222 227 238 255 264 298 322 310 290 271 273 274 275 285 287 288 281 273 262 260 251 251 238 232 234 230 230 224 224 218 232 230 203 238 250 277 283 280 285
nan nan nan nan nan nan nan nan nan nan nan nan nan nan nan nan nan nan nan nan nan nan nan nan nan 250 245 246 249 253 252 nan 247 253 260 256 243 231 230 232 237 247 248 243 248 245 243 235 237 238 246 293 311 297 292 301 276 275 273 273 282 284 287 286 283 272 264 250 247 248 243 243 241 233 231 229 226 231 230 232 227 243 238 262 263 236
nan nan nan nan nan nan nan nan nan nan nan nan nan nan nan nan nan nan nan nan nan nan nan 242 245 245 252 245 257 256 250 256 258 258 252 248 246 240 237 237 243 245 246 247 250 242 227 229 241 250 252 280 300 304 283 285 286 272 274 276 277 273 276 281 281 280 270 255 249 254 254 253 250 252 249 247 261 281 244 236 240 249 256 251 253 265
nan nan nan nan nan nan nan nan nan nan nan nan nan nan nan nan nan nan nan nan nan nan 245 264 266 265 263 256 250 257 258 246 nan 253 252 251 249 242 236 239 249 256 245 259 257 242 247 238 222 257 215 237 274 282 262 245 255 274 273 280 279 273 272 277 278 281 273 260 252 250 256 256 258 262 263 249 258 240 247 247 251 256 258 266 281 275
nan nan nan nan nan nan nan nan nan nan nan nan nan nan nan nan nan nan nan nan nan nan 241 265 278 273 265 261 258 258 256 263 259 249 248 nan 246 244 240 234 227 239 262 259 272 275 270 248 258 261 278 245 260 265 261 252 240 251 272 271 277 273 269 272 274 272 261 261 249 245 251 262 260 260 257 243 244 235 244 269 269 261 264 271 251 264
nan nan nan nan nan nan nan nan nan nan nan nan nan nan nan nan nan nan nan nan nan nan nan 256 265 255 254 258 256 261 nan 256 nan nan nan nan nan 239 233 228 233 235 236 251 255 257 265 270 261 255 276 290 272 266 260 246 237 234 226 235 234 230 233 251 258 264 267 270 256 249 248 250 253 255 255 246 241 253 248 250 267 266 279 274 259 257
nan nan nan nan nan nan nan nan nan nan nan nan nan nan nan nan nan nan nan nan nan nan nan 252 242 239 247 248 253 254 nan nan nan nan nan nan nan nan nan 232 232 238 244 244 239 236 234 241 254 269 266 270 251 246 248 257 266 262 259 251 261 259 239 227 224 255 250 253 251 251 256 257 254 265 258 265 247 251 256 250 248 268 249 261 265 269
nan nan nan nan nan nan nan nan nan nan nan nan nan nan nan nan nan nan nan nan nan nan 224 252 246 247 253 257 260 nan nan nan nan nan nan nan nan nan nan nan 238 242 241 240 242 235 232 236 246 248 247 245 254 252 248 249 250 252 247 249 245 246 239 229 215 208 230 245 248 251 255 257 256 256 253 265 258 257 263 260 250 251 246 266 269 279
nan nan nan nan nan nan nan nan nan nan nan nan nan nan nan nan nan nan nan nan nan nan 245 249 256 253 248 255 nan nan nan nan nan nan nan nan nan nan nan nan 243 240 235 239 241 240 235 229 232 238 238 239 243 241 242 245 250 253 257 257 248 244 249 247 244 228 203 215 242 241 246 251 255 256 261 269 259 277 275 272 269 253 256 263 276 277
nan nan nan nan nan nan nan nan nan nan nan nan nan nan nan nan nan nan nan nan nan 220 244 243 246 255 256 nan nan nan nan nan nan nan nan nan nan nan nan nan 239 239 241 243 244 242 240 234 233 236 235 236 243 246 247 248 250 254 254 252 249 247 242 240 242 233 219 194 201 231 237 245 250 267 272 271 263 271 270 269 270 264 261 271 278 290
nan nan nan nan nan nan nan nan nan nan nan nan nan nan nan nan nan nan nan nan nan nan nan 236 252 nan nan nan nan nan nan nan nan nan nan nan nan nan nan nan nan 240 239 242 243 243 242 238 234 233 240 239 243 246 246 249 250 245 243 249 247 239 228 219 216 231 233 217 206 215 218 231 240 253 265 273 267 269 267 264 270 265 272 273 274 283
nan nan nan nan nan nan nan nan nan nan nan nan nan nan nan nan nan nan nan nan nan nan nan 223 236 nan nan nan nan nan nan nan nan nan nan nan nan nan nan nan nan nan 238 239 241 242 243 242 239 234 238 240 238 244 248 245 241 237 237 232 233 234 226 219 211 216 225 231 231 221 214 198 209 231 249 262 265 267 266 258 259 268 270 272 270 264
nan nan nan nan nan nan nan nan nan nan nan nan nan nan nan nan nan nan nan nan nan nan 220 226 243 nan nan nan nan nan nan nan nan nan nan nan nan nan nan nan nan nan 238 238 240 243 244 244 243 240 234 237 237 239 242 247 249 246 242 238 236 231 218 215 215 219 226 233 239 247 246 230 205 203 219 235 238 246 252 252 255 265 274 272 269 270
nan nan nan nan nan nan nan nan nan nan nan nan nan nan nan nan nan nan nan nan nan nan nan 229 245 nan nan nan nan nan nan nan nan nan nan nan nan nan nan nan nan nan nan 238 238 238 242 244 245 246 243 237 241 244 242 238 247 251 247 243 238 234 223 218 221 225 227 236 234 235 240 238 241 228 208 203 214 227 237 246 242 244 251 267 273 274
nan nan nan nan nan nan nan nan nan nan nan nan nan nan nan nan nan nan nan nan nan nan 225 229 233 nan nan nan nan nan nan nan nan nan nan nan nan nan nan nan nan nan nan nan nan 238 238 242 244 246 248 245 243 248 249 242 238 241 253 245 241 236 224 217 221 222 224 233 234 231 233 238 246 253 252 235 208 213 232 231 241 241 241 252 268 271
nan nan nan nan nan nan nan nan nan nan nan nan nan nan nan nan nan nan nan nan nan nan 238 236 234 nan nan nan nan nan nan nan nan nan nan nan nan nan nan nan nan nan nan nan nan 238 239 241 243 245 249 251 249 245 246 251 250 245 242 245 244 245 229 222 224 225 228 235 235 225 225 224 222 228 239 242 239 220 227 234 231 231 240 243 254 260
nan nan nan nan nan nan nan nan nan nan nan nan nan nan nan nan nan nan nan nan nan nan nan 243 nan nan nan nan nan nan nan nan nan nan nan nan nan nan nan nan nan nan nan nan nan nan nan nan 240 242 245 250 253 251 249 249 247 244 242 237 240 249 241 228 224 228 231 236 237 235 226 232 232 230 226 223 227 238 233 230 228 233 231 238 244 249
nan nan nan nan nan nan nan nan nan nan nan nan nan nan nan nan nan nan nan nan nan nan 237 nan nan nan nan nan nan nan nan nan nan nan nan nan nan nan nan nan nan nan nan nan nan nan nan nan nan nan nan 246 250 252 252 251 251 251 245 234 229 230 235 233 230 229 227 233 232 231 233 230 228 228 224 221 222 226 232 231 237 225 219 224 234 240
nan nan nan nan nan nan nan nan nan nan nan nan nan nan nan nan nan nan nan nan nan nan nan nan nan nan nan nan nan nan nan nan nan nan nan nan nan nan nan nan nan nan nan nan nan nan nan nan nan nan nan nan nan nan nan 253 252 250 248 244 236 232 227 226 228 230 228 225 231 236 235 230 223 218 219 224 226 229 230 231 232 236 227 211 205 224
nan nan nan nan nan nan nan nan nan nan nan nan nan nan nan nan nan nan nan nan nan nan nan nan 247 nan nan nan nan nan nan nan nan nan nan nan nan nan nan nan nan nan nan nan nan nan nan nan nan nan nan nan nan nan nan nan nan nan 247 244 244 239 235 228 225 229 227 225 227 230 234 232 226 221 222 225 229 236 237 229 232 240 244 232 222 213
nan nan nan nan nan nan nan nan nan nan nan nan nan nan nan nan nan nan nan nan nan nan nan nan nan nan nan nan nan nan nan nan nan nan nan nan nan nan nan nan nan nan nan nan nan nan nan nan nan nan nan nan nan nan nan nan nan nan nan nan nan 240 240 237 232 232 229 226 226 227 229 228 226 224 225 228 229 231 236 240 239 247 260 261 252 249
nan nan nan nan nan nan nan nan nan nan nan nan nan nan nan nan nan nan nan nan nan nan nan nan nan nan nan nan nan nan nan nan nan nan nan nan nan nan nan nan nan nan nan nan nan nan nan nan nan nan nan nan nan nan nan nan nan nan nan nan nan nan nan 241 238 235 232 230 229 229 228 227 227 228 227 231 233 235 238 242 238 233 244 254 252 250
nan nan nan nan nan nan nan nan nan nan nan nan nan nan nan nan nan nan nan nan nan nan nan nan nan nan nan nan nan nan nan nan nan nan nan nan nan nan nan nan nan nan nan nan nan nan nan nan nan nan nan nan nan nan nan nan nan nan nan nan nan nan nan nan nan nan 234 231 230 230 231 230 229 229 227 231 232 236 236 242 244 240 243 244 242 240
nan nan nan nan nan nan nan nan nan nan nan nan nan nan nan nan nan nan nan nan nan nan nan nan nan nan nan nan nan nan nan nan nan nan nan nan nan nan nan nan nan nan nan nan nan nan nan nan nan nan nan nan nan nan nan nan nan nan nan nan nan nan nan nan nan nan nan nan nan nan 230 235 234 228 225 228 228 233 237 235 238 242 245 243 243 250
nan nan nan nan nan nan nan nan nan nan nan nan nan nan nan nan nan nan nan nan nan nan nan nan nan nan nan nan nan nan nan nan nan nan nan nan nan nan nan nan nan nan nan nan nan nan nan nan nan nan nan nan nan nan nan nan nan nan nan nan nan nan nan nan nan nan nan nan nan nan nan nan 239 236 230 227 227 232 231 231 229 228 229 235 240 244
nan nan nan nan nan nan nan nan nan nan nan nan nan nan nan nan nan nan nan nan nan nan nan nan nan nan nan nan nan nan nan nan nan nan nan nan nan nan nan nan nan nan nan nan nan nan nan nan nan nan nan nan nan nan nan nan nan nan nan nan nan nan nan nan nan nan nan nan nan nan nan nan 238 235 234 231 228 234 232 228 230 233 234 226 229 233
nan nan nan nan nan nan nan nan nan 242 nan nan nan nan nan nan nan nan nan 246 nan nan nan nan nan nan nan nan nan nan nan nan nan nan nan nan nan nan nan nan nan nan nan nan nan nan nan nan nan nan nan nan nan nan nan nan nan nan nan nan nan nan nan nan nan nan nan nan nan nan nan nan nan nan 234 236 232 233 235 235 231 236 240 236 231 229
nan nan nan nan nan nan nan nan nan 240 nan nan nan nan nan nan nan nan 245 nan nan nan nan nan nan nan nan nan nan nan nan nan nan nan nan nan nan nan nan nan nan nan nan nan nan nan nan nan nan nan nan nan nan nan nan nan nan nan nan nan nan nan nan nan nan nan nan nan nan nan nan nan nan nan nan 241 240 238 236 236 237 238 241 243 241 240
nan nan nan nan nan nan nan nan nan nan 247 nan nan nan nan nan 248 250 nan nan nan nan nan nan nan nan nan nan nan nan nan nan nan nan nan nan nan nan nan nan nan nan nan nan nan nan nan nan nan nan nan nan nan nan nan nan nan nan nan nan nan nan nan nan nan nan nan nan nan nan nan nan nan nan nan 249 249 246 245 246 244 242 241 239 241 246
nan nan nan nan nan nan nan nan nan 237 254 nan nan nan nan 247 254 254 nan nan nan nan nan nan nan nan nan nan nan nan nan nan nan nan nan nan nan nan nan nan nan nan nan nan nan nan nan nan nan nan nan nan nan nan nan nan nan nan nan nan nan nan nan nan nan nan nan nan nan nan nan nan nan nan nan 256 257 255 254 254 252 250 246 243 246 249
nan nan 238 240 229 nan nan nan nan 250 nan nan nan nan nan nan 254 nan nan nan nan nan nan nan nan nan nan nan nan nan nan nan nan nan nan nan nan nan nan nan nan nan nan nan nan nan nan nan nan nan nan nan nan nan nan nan nan nan nan nan nan nan nan nan nan nan nan nan nan nan nan nan nan nan nan 255 255 256 257 258 258 256 253 250 249 250
nan nan 246 241 nan nan nan nan nan nan nan nan nan nan nan nan 252 nan nan nan nan nan nan nan nan nan nan nan nan nan nan nan nan nan nan nan nan nan nan nan nan nan nan nan nan nan nan nan nan nan nan nan nan nan nan nan nan nan nan nan nan nan nan nan nan nan nan nan nan nan nan nan nan nan nan nan nan nan 256 257 262 264 262 258 255 254
nan nan nan nan nan nan nan nan nan nan nan nan nan nan nan 258 256 nan nan nan nan nan nan nan nan nan nan nan nan nan nan nan nan nan nan nan nan nan nan nan nan nan nan nan nan nan nan nan nan nan nan nan nan nan nan nan nan nan nan nan nan nan nan nan nan nan nan nan nan nan nan nan nan nan nan nan nan nan nan nan 254 261 264 262 257 256
269 nan nan nan nan nan nan nan nan nan nan nan nan nan nan nan 258 nan nan nan nan nan nan nan nan nan nan nan nan nan nan nan nan nan nan nan nan nan nan nan nan nan nan nan nan nan nan nan nan nan nan nan nan nan nan nan nan nan nan nan nan nan nan nan nan nan nan nan nan nan nan nan nan nan nan nan nan nan nan nan nan nan 253 254 255 255
nan nan nan 260 nan nan nan nan nan nan nan nan nan nan nan nan nan nan nan nan nan nan nan nan nan nan nan nan nan nan nan nan nan nan nan nan nan nan nan nan nan nan nan nan nan nan nan nan nan nan nan nan nan nan nan nan nan nan nan nan nan nan nan nan nan nan nan nan nan nan nan nan nan nan nan nan nan nan nan nan nan nan nan nan nan 254
nan nan nan nan 253 253 nan 247 238 nan nan nan nan nan nan nan nan nan nan nan nan nan nan nan nan nan nan nan nan nan nan nan nan nan nan nan nan nan nan nan nan nan nan nan nan nan nan nan nan nan nan nan nan nan nan nan nan nan nan nan nan nan nan nan nan nan nan nan nan nan nan nan nan nan nan nan nan nan nan nan nan nan nan nan nan nan
nan 251 246 250 252 nan nan nan 248 nan nan nan nan nan nan nan nan nan nan nan nan nan nan nan nan nan nan nan nan nan nan nan nan nan nan nan nan nan nan nan nan nan nan nan nan nan nan nan nan nan nan nan nan nan nan nan nan nan nan nan nan nan nan nan nan nan nan nan nan nan nan nan nan nan nan nan nan nan nan nan nan nan nan nan nan nan